| time (UTC) | temp C | wind direction | speed KPH | gust KPH | rain 1hr cm | rain 24hr cm | rain mn cm | humidity % | barometer mb |
| 20260506004503 | 20 | 224 | 0.0 | 0.0 | 0.00 | 0.00 | 0.00 | 99 | 1026.5 |
| 20260506003006 | 20 | 224 | 0.0 | 0.0 | 0.00 | 0.00 | 0.00 | 99 | 1026.8 |
| 20260506001503 | 20 | 224 | 0.0 | 0.0 | 0.00 | 0.00 | 0.00 | 100 | 1027.1 |
| 20260506000005 | 20 | 224 | 0.0 | 0.0 | 0.00 | 0.00 | 0.00 | 100 | 1027.1 |
| 20260505234503 | 19 | 224 | 0.0 | 0.0 | 0.00 | 0.00 | 0.00 | 100 | 1027.0 |
| 20260505233007 | 19 | 224 | 0.0 | 0.0 | 0.00 | 0.00 | 0.00 | 100 | 1026.9 |
| 20260505230028 | 18 | 224 | 0.0 | 0.0 | 0.00 | 0.00 | 0.00 | 100 | 1026.8 |
| 20260505224504 | 17 | 224 | 0.0 | 0.0 | 0.00 | 0.00 | 0.00 | 100 | 1027.0 |
| 20260505223008 | 17 | 224 | 0.0 | 0.0 | 0.00 | 0.00 | 0.00 | 100 | 1027.0 |
| 20260505221505 | 17 | 224 | 0.0 | 0.0 | 0.00 | 0.00 | 0.00 | 100 | 1027.2 |
| 20260505220003 | 16 | 224 | 0.0 | 0.0 | 0.00 | 0.00 | 0.00 | 100 | 1027.3 |
| 20260505214504 | 16 | 224 | 0.0 | 0.0 | 0.00 | 0.00 | 0.00 | 100 | 1027.2 |
| 20260505213003 | 15 | 224 | 0.0 | 0.0 | 0.00 | 0.00 | 0.00 | 100 | 1027.1 |
| 20260505211507 | 15 | 224 | 0.0 | 0.0 | 0.00 | 0.00 | 0.00 | 100 | 1027.1 |
| 20260505210004 | 15 | 224 | 0.0 | 0.0 | 0.00 | 0.00 | 0.00 | 100 | 1027.0 |
| 20260505204506 | 15 | 224 | 0.0 | 0.0 | 0.00 | 0.00 | 0.00 | 100 | 1027.1 |
| 20260505203003 | 15 | 224 | 0.0 | 0.0 | 0.00 | 0.00 | 0.00 | 100 | 1027.1 |
| 20260505201507 | 15 | 224 | 0.0 | 0.0 | 0.00 | 0.00 | 0.00 | 100 | 1027.2 |
| 20260505200004 | 15 | 224 | 0.0 | 0.0 | 0.00 | 0.00 | 0.00 | 100 | 1027.1 |
| 20260505194506 | 15 | 224 | 0.0 | 0.0 | 0.00 | 0.00 | 0.00 | 100 | 1026.9 |
| 20260505193003 | 15 | 224 | 0.0 | 0.0 | 0.00 | 0.00 | 0.00 | 100 | 1027.0 |
| 20260505191506 | 15 | 224 | 0.0 | 0.0 | 0.00 | 0.00 | 0.00 | 100 | 1026.9 |
| 20260505190004 | 15 | 224 | 0.0 | 0.0 | 0.00 | 0.00 | 0.00 | 100 | 1026.7 |
| 20260505183003 | 15 | 224 | 0.0 | 0.0 | 0.00 | 0.00 | 0.00 | 99 | 1026.5 |
| 20260505181506 | 16 | 224 | 0.0 | 0.0 | 0.00 | 0.00 | 0.00 | 97 | 1026.7 |
| 20260505180004 | 16 | 224 | 0.0 | 0.0 | 0.00 | 0.00 | 0.00 | 94 | 1026.5 |
| 20260505174506 | 16 | 224 | 0.0 | 0.0 | 0.00 | 0.00 | 0.00 | 91 | 1026.3 |
| 20260505173004 | 16 | 224 | 0.0 | 0.0 | 0.00 | 0.00 | 0.00 | 88 | 1026.5 |
| 20260505170004 | 16 | 224 | 0.0 | 0.0 | 0.00 | 0.00 | 0.00 | 80 | 1026.4 |
| 20260505164505 | 16 | 224 | 0.0 | 0.0 | 0.00 | 0.00 | 0.00 | 77 | 1026.5 |
| 20260505163003 | 17 | 224 | 0.0 | 0.0 | 0.00 | 0.00 | 0.00 | 74 | 1026.6 |
| 20260505161506 | 16 | 224 | 0.0 | 0.0 | 0.00 | 0.00 | 0.00 | 70 | 1026.6 |
| 20260505153003 | 17 | 224 | 0.0 | 0.0 | 0.00 | 0.00 | 0.00 | 69 | 1026.6 |
| 20260505151507 | 17 | 224 | 0.0 | 0.0 | 0.00 | 0.00 | 0.00 | 67 | 1026.7 |
| 20260505124504 | 17 | 359 | 0.0 | 0.0 | 0.00 | 0.00 | 0.00 | 55 | 1026.5 |
| 20260505123007 | 17 | 359 | 0.0 | 0.0 | 0.00 | 0.00 | 0.00 | 53 | 1026.5 |
| 20260505121505 | 17 | 359 | 0.0 | 0.0 | 0.00 | 0.00 | 0.00 | 53 | 1026.5 |
| 20260505120004 | 17 | 359 | 0.0 | 0.0 | 0.00 | 0.00 | 0.00 | 52 | 1026.4 |
| 20260505114505 | 17 | 113 | 0.0 | 0.0 | 0.00 | 0.00 | 0.00 | 53 | 1026.4 |
| 20260505113004 | 18 | 113 | 0.0 | 0.0 | 0.00 | 0.00 | 0.00 | 51 | 1026.2 |
| 20260505111507 | 18 | 113 | 0.0 | 0.0 | 0.00 | 0.00 | 0.00 | 51 | 1026.1 |
| 20260505100003 | 18 | 113 | 0.0 | 0.0 | 0.00 | 0.00 | 0.00 | 48 | 1025.3 |
| 20260505094505 | 18 | 113 | 0.0 | 0.0 | 0.00 | 0.00 | 0.00 | 47 | 1025.0 |
| 20260505093008 | 18 | 113 | 0.0 | 0.0 | 0.00 | 0.00 | 0.00 | 46 | 1024.8 |
| 20260505090004 | 18 | 359 | 0.0 | 0.0 | 0.00 | 0.00 | 0.00 | 45 | 1024.3 |
| 20260505084505 | 19 | 359 | 0.0 | 0.0 | 0.00 | 0.00 | 0.00 | 44 | 1024.2 |
| 20260505083003 | 19 | 359 | 0.0 | 0.0 | 0.00 | 0.00 | 0.00 | 43 | 1024.1 |
| 20260505081507 | 20 | 339 | 0.0 | 0.0 | 0.00 | 0.00 | 0.00 | 42 | 1023.9 |
| 20260505080004 | 20 | 172 | 1.6 | 6.4 | 0.00 | 0.00 | 0.00 | 38 | 1024.0 |
| 20260505074506 | 21 | 177 | 0.0 | 0.0 | 0.00 | 0.00 | 0.00 | 41 | 1024.0 |
| 20260505073004 | 21 | 90 | 1.6 | 9.7 | 0.00 | 0.00 | 0.00 | 41 | 1023.7 |
| 20260505071508 | 21 | 186 | 0.0 | 0.0 | 0.00 | 0.00 | 0.00 | 42 | 1023.7 |
| 20260505070005 | 21 | 194 | 0.0 | 6.4 | 0.00 | 0.00 | 0.00 | 40 | 1023.6 |
| 20260505063008 | 21 | 174 | 1.6 | 12.9 | 0.00 | 0.00 | 0.00 | 36 | 1023.3 |
| 20260505061504 | 22 | 194 | 0.0 | 0.0 | 0.00 | 0.00 | 0.00 | 36 | 1023.3 |
| 20260505060008 | 22 | 186 | 1.6 | 6.4 | 0.00 | 0.00 | 0.00 | 35 | 1023.1 |
| 20260505054504 | 22 | 94 | 8.0 | 16.1 | 0.00 | 0.00 | 0.00 | 32 | 1023.1 |
| 20260505053007 | 22 | 181 | 3.2 | 8.0 | 0.00 | 0.00 | 0.00 | 34 | 1023.1 |
| 20260505051504 | 22 | 143 | 1.6 | 11.3 | 0.00 | 0.00 | 0.00 | 35 | 1023.1 |
| 20260505041505 | 26 | 359 | 0.0 | 0.0 | 0.00 | 0.00 | 0.00 | 17 | 1023.3 |
| 20260505040008 | 25 | 359 | 0.0 | 0.0 | 0.00 | 0.00 | 0.00 | 13 | 1023.3 |
| 20260505034504 | 25 | 359 | 0.0 | 0.0 | 0.00 | 0.00 | 0.00 | 14 | 1023.2 |
| 20260505031504 | 23 | 359 | 0.0 | 0.0 | 0.00 | 0.00 | 0.00 | 15 | 1023.4 |
| 20260505030008 | 23 | 359 | 0.0 | 0.0 | 0.00 | 0.00 | 0.00 | 17 | 1023.4 |
| 20260505024503 | 23 | 359 | 0.0 | 0.0 | 0.00 | 0.00 | 0.00 | 17 | 1023.4 |
| 20260505023007 | 23 | 359 | 0.0 | 0.0 | 0.00 | 0.00 | 0.00 | 18 | 1023.6 |
| 20260505020002 | 23 | 1 | 0.0 | 0.0 | 0.00 | 0.00 | 0.00 | 15 | 1023.6 |
| 20260505014504 | 23 | 1 | 0.0 | 0.0 | 0.00 | 0.00 | 0.00 | 17 | 1023.5 |
| 20260505011504 | 22 | 1 | 0.0 | 0.0 | 0.00 | 0.00 | 0.00 | 15 | 1023.3 |
| 20260505010002 | 21 | 1 | 0.0 | 0.0 | 0.00 | 0.00 | 0.00 | 16 | 1023.3 |